Location: Munkebjergskolens Observatorium
(55.3864°N, 10.3987°E)
Time: 23:26:55
(UTC+01:00)

Envisat - Pass Details

Date: 30 November 2022
Orbit: 763 x 765 km, 98.2° (Epoch: 01 February)

Event Time Altitude Azimuth Distance (km) Brightness Sun altitude
Rises 03:49:58 0° 20° (NNE) 3,248 6.7 -36.9°
Reaches altitude 10° 03:52:32 10° 31° (NNE) 2,317 5.9 -36.5°
Enters shadow 03:56:20 30° 77° (ENE) 1,348 4.7 -36.0°
